Location: Hains Lake
(37.8540°N, 99.8578°W)
Time: 23:07:39
(UTC+00:00)

Explorer 7 - Pass Details

Date: 24 April 2021
Orbit: 484 x 677 km, 50.3° (Epoch: 14 May)

Event Time Altitude Azimuth Distance (km) Brightness Sun altitude
Rises 03:10:46 0° 289° (WNW) 2,644 11.7 -19.9°
Reaches altitude 10° 03:13:37 10° 311° (NW) 1,794 10.6 -20.3°
Maximum altitude 03:16:15 16° 351° (N) 1,470 9.5 -20.7°
Drops below altitude 10° 03:18:58 10° 31° (NNE) 1,872 9.6 -21.2°
Enters shadow 03:20:56 - 47° (NE) 2,449 10.0 -21.5°
